Time,TemperatureF,DewpointF,PressureIn,WindDirection,WindDirectionDegrees,WindSpeedMPH,WindSpeedGustMPH,Humidity,HourlyPrecipIn,Conditions,Clouds,dailyrainin,SoftwareType,DateUTC
2013-07-31 00:01:00,61.7,58.4,30.16,North,360,0.0,0.0,89,0.00,SCT,,0.00,WeatherDisplay:10.37,2013-07-31 04:01:00,
2013-07-31 00:06:00,61.6,58.3,30.16,North,360,0.0,0.0,89,0.00,BKN,,0.00,WeatherDisplay:10.37,2013-07-31 04:06:00,
2013-07-31 00:11:00,61.5,57.9,30.16,North,360,0.0,0.0,88,0.00,BKN,,0.00,WeatherDisplay:10.37,2013-07-31 04:11:00,
2013-07-31 00:16:00,61.5,58.2,30.16,North,360,0.0,0.0,89,0.00,BKN,,0.00,WeatherDisplay:10.37,2013-07-31 04:16:00,
2013-07-31 00:21:00,61.4,58.1,30.16,North,360,0.0,0.0,89,0.00,BKN,,0.00,WeatherDisplay:10.37,2013-07-31 04:21:00,
2013-07-31 00:26:00,61.4,58.1,30.16,North,360,0.0,0.0,89,0.00,BKN,,0.00,WeatherDisplay:10.37,2013-07-31 04:26:00,
2013-07-31 00:31:00,61.4,58.1,30.16,North,360,0.0,0.0,89,0.00,BKN,,0.00,WeatherDisplay:10.37,2013-07-31 04:31:00,
2013-07-31 00:36:00,61.3,58.0,30.16,North,360,0.0,0.0,89,0.00,BKN,,0.00,WeatherDisplay:10.37,2013-07-31 04:36:00,
2013-07-31 00:41:00,61.2,57.9,30.16,North,360,0.0,0.0,89,0.00,BKN,,0.00,WeatherDisplay:10.37,2013-07-31 04:41:00,
2013-07-31 00:46:00,61.1,57.8,30.16,North,360,0.0,0.0,89,0.00,BKN,,0.00,WeatherDisplay:10.37,2013-07-31 04:46:00,
2013-07-31 00:51:00,61.1,57.8,30.16,North,360,0.0,0.0,89,0.00,BKN,,0.00,WeatherDisplay:10.37,2013-07-31 04:51:00,
2013-07-31 00:56:00,61.0,57.7,30.16,North,360,0.0,0.0,89,0.00,BKN,,0.00,WeatherDisplay:10.37,2013-07-31 04:56:00,
2013-07-31 01:01:00,60.9,57.6,30.16,North,360,0.0,0.0,89,0.00,BKN,,0.00,WeatherDisplay:10.37,2013-07-31 05:01:00,
2013-07-31 01:06:00,60.8,57.5,30.17,North,360,0.0,0.0,89,0.00,BKN,,0.00,WeatherDisplay:10.37,2013-07-31 05:06:00,
2013-07-31 01:12:00,60.7,57.4,30.16,North,360,0.0,0.0,89,0.00,BKN,,0.00,WeatherDisplay:10.37,2013-07-31 05:12:00,
2013-07-31 01:17:00,60.6,57.3,30.16,North,360,0.0,0.0,89,0.00,BKN,,0.00,WeatherDisplay:10.37,2013-07-31 05:17:00,
2013-07-31 01:22:00,60.5,57.2,30.16,North,360,0.0,0.0,89,0.00,BKN,,0.00,WeatherDisplay:10.37,2013-07-31 05:22:00,
2013-07-31 01:27:00,60.3,57.4,30.16,North,360,0.0,0.0,90,0.00,BKN,,0.00,WeatherDisplay:10.37,2013-07-31 05:27:00,
2013-07-31 01:32:00,60.2,57.3,30.15,North,360,0.0,0.0,90,0.00,BKN,,0.00,WeatherDisplay:10.37,2013-07-31 05:32:00,
2013-07-31 01:37:00,60.1,57.2,30.15,North,360,0.0,0.0,90,0.00,BKN,,0.00,WeatherDisplay:10.37,2013-07-31 05:37:00,
2013-07-31 01:42:00,60.0,57.1,30.16,North,360,0.0,0.0,90,0.00,BKN,,0.00,WeatherDisplay:10.37,2013-07-31 05:42:00,
2013-07-31 01:47:00,59.9,57.0,30.16,North,360,0.0,0.0,90,0.00,BKN,,0.00,WeatherDisplay:10.37,2013-07-31 05:47:00,
2013-07-31 01:52:00,59.9,57.0,30.15,North,360,0.0,0.0,90,0.00,BKN,,0.00,WeatherDisplay:10.37,2013-07-31 05:52:00,
2013-07-31 01:57:00,59.8,56.9,30.15,North,360,0.0,0.0,90,0.00,BKN,,0.00,WeatherDisplay:10.37,2013-07-31 05:57:00,
2013-07-31 02:02:00,59.8,57.2,30.15,North,360,0.0,0.0,91,0.00,OVC,,0.00,WeatherDisplay:10.37,2013-07-31 06:02:00,
2013-07-31 02:07:00,59.7,57.1,30.15,North,360,0.0,0.0,91,0.00,OVC,,0.00,WeatherDisplay:10.37,2013-07-31 06:07:00,
2013-07-31 02:12:00,59.6,57.0,30.15,North,360,0.0,0.0,91,0.00,OVC,,0.00,WeatherDisplay:10.37,2013-07-31 06:12:00,
2013-07-31 02:17:00,59.6,57.0,30.15,North,360,0.0,0.0,91,0.00,OVC,,0.00,WeatherDisplay:10.37,2013-07-31 06:17:00,
2013-07-31 02:22:00,59.5,56.9,30.15,North,360,0.0,0.0,91,0.00,OVC,,0.00,WeatherDisplay:10.37,2013-07-31 06:22:00,
2013-07-31 02:27:00,59.3,56.7,30.15,North,360,0.0,0.0,91,0.00,OVC,,0.00,WeatherDisplay:10.37,2013-07-31 06:27:00,
2013-07-31 02:32:00,59.3,56.7,30.15,North,360,0.0,0.0,91,0.00,OVC,,0.00,WeatherDisplay:10.37,2013-07-31 06:32:00,
2013-07-31 02:37:00,59.1,56.5,30.15,North,360,0.0,0.0,91,0.00,OVC,,0.00,WeatherDisplay:10.37,2013-07-31 06:37:00,
2013-07-31 02:42:00,59.0,56.4,30.15,North,360,0.0,0.0,91,0.00,OVC,,0.00,WeatherDisplay:10.37,2013-07-31 06:42:00,
2013-07-31 02:47:00,58.9,56.3,30.15,North,360,0.0,0.0,91,0.00,OVC,,0.00,WeatherDisplay:10.37,2013-07-31 06:47:00,
2013-07-31 02:52:00,58.9,56.3,30.15,North,360,0.0,0.0,91,0.00,OVC,,0.00,WeatherDisplay:10.37,2013-07-31 06:52:00,
2013-07-31 02:57:00,58.9,56.3,30.15,North,360,0.0,0.0,91,0.00,OVC,,0.00,WeatherDisplay:10.37,2013-07-31 06:57:00,
2013-07-31 03:02:00,58.9,56.6,30.15,North,360,0.0,0.0,92,0.00,OVC,,0.00,WeatherDisplay:10.37,2013-07-31 07:02:00,
2013-07-31 03:07:00,59.0,56.7,30.15,North,360,0.0,0.0,92,0.00,OVC,,0.00,WeatherDisplay:10.37,2013-07-31 07:07:00,
2013-07-31 03:12:00,59.1,56.8,30.15,North,360,0.0,0.0,92,0.00,OVC,,0.00,WeatherDisplay:10.37,2013-07-31 07:12:00,
2013-07-31 03:17:00,59.2,56.9,30.15,North,360,0.0,0.0,92,0.00,OVC,,0.00,WeatherDisplay:10.37,2013-07-31 07:17:00,
2013-07-31 03:22:00,59.3,57.0,30.15,North,360,0.0,0.0,92,0.00,OVC,,0.00,WeatherDisplay:10.37,2013-07-31 07:22:00,
2013-07-31 03:27:00,59.4,57.4,30.15,North,360,0.0,0.0,93,0.00,OVC,,0.00,WeatherDisplay:10.37,2013-07-31 07:27:00,
2013-07-31 03:32:00,59.4,57.1,30.14,North,360,0.0,0.0,92,0.00,OVC,,0.00,WeatherDisplay:10.37,2013-07-31 07:32:00,
2013-07-31 03:37:00,59.4,57.1,30.14,North,360,0.0,0.0,92,0.00,OVC,,0.00,WeatherDisplay:10.37,2013-07-31 07:37:00,
2013-07-31 03:42:00,59.4,57.1,30.14,North,360,0.0,0.0,92,0.00,OVC,,0.00,WeatherDisplay:10.37,2013-07-31 07:42:00,
2013-07-31 03:47:00,59.4,57.1,30.14,North,360,0.0,0.0,92,0.00,OVC,,0.00,WeatherDisplay:10.37,2013-07-31 07:47:00,
2013-07-31 03:52:00,59.3,57.0,30.14,North,360,0.0,0.0,92,0.00,OVC,,0.00,WeatherDisplay:10.37,2013-07-31 07:52:00,
2013-07-31 03:57:00,59.3,57.0,30.14,North,360,0.0,0.0,92,0.00,OVC,,0.00,WeatherDisplay:10.37,2013-07-31 07:57:00,
2013-07-31 04:02:00,59.2,56.9,30.14,North,360,0.0,0.0,92,0.00,OVC,,0.00,WeatherDisplay:10.37,2013-07-31 08:02:00,
2013-07-31 04:07:00,59.2,56.9,30.14,North,360,0.0,0.0,92,0.00,OVC,,0.00,WeatherDisplay:10.37,2013-07-31 08:07:00,
2013-07-31 04:12:00,59.1,56.8,30.14,North,360,0.0,0.0,92,0.00,OVC,,0.00,WeatherDisplay:10.37,2013-07-31 08:12:00,
2013-07-31 04:17:00,59.1,56.8,30.14,North,360,0.0,0.0,92,0.00,OVC,,0.00,WeatherDisplay:10.37,2013-07-31 08:17:00,
2013-07-31 04:22:00,59.1,56.8,30.14,North,360,0.0,0.0,92,0.00,OVC,,0.00,WeatherDisplay:10.37,2013-07-31 08:22:00,
2013-07-31 04:27:00,59.0,56.7,30.14,North,360,0.0,0.0,92,0.00,OVC,,0.00,WeatherDisplay:10.37,2013-07-31 08:27:00,
2013-07-31 04:32:00,58.9,56.6,30.14,North,360,0.0,0.0,92,0.00,OVC,,0.00,WeatherDisplay:10.37,2013-07-31 08:32:00,
2013-07-31 04:37:00,58.9,56.6,30.14,North,360,0.0,0.0,92,0.00,OVC,,0.00,WeatherDisplay:10.37,2013-07-31 08:37:00,
2013-07-31 04:42:00,58.8,56.5,30.14,North,360,0.0,0.0,92,0.00,OVC,,0.00,WeatherDisplay:10.37,2013-07-31 08:42:00,
2013-07-31 04:47:00,58.7,56.4,30.14,North,360,0.0,0.0,92,0.00,OVC,,0.00,WeatherDisplay:10.37,2013-07-31 08:47:00,
2013-07-31 04:52:00,58.7,56.4,30.13,North,360,0.0,0.0,92,0.00,OVC,,0.00,WeatherDisplay:10.37,2013-07-31 08:52:00,
2013-07-31 04:57:00,58.6,56.3,30.13,North,360,0.0,0.0,92,0.00,OVC,,0.00,WeatherDisplay:10.37,2013-07-31 08:57:00,
2013-07-31 05:02:00,58.6,56.3,30.13,North,360,0.0,0.0,92,0.00,OVC,,0.00,WeatherDisplay:10.37,2013-07-31 09:02:00,
2013-07-31 05:07:00,58.5,56.2,30.13,North,360,0.0,0.0,92,0.00,OVC,,0.00,WeatherDisplay:10.37,2013-07-31 09:07:00,
2013-07-31 05:12:00,58.4,56.1,30.13,North,360,0.0,0.0,92,0.00,OVC,,0.00,WeatherDisplay:10.37,2013-07-31 09:12:00,
2013-07-31 05:17:00,58.2,55.9,30.13,North,360,0.0,0.0,92,0.00,OVC,,0.00,WeatherDisplay:10.37,2013-07-31 09:17:00,
2013-07-31 05:22:00,58.1,55.8,30.13,North,360,0.0,0.0,92,0.00,OVC,,0.00,WeatherDisplay:10.37,2013-07-31 09:22:00,
2013-07-31 05:27:00,58.0,55.7,30.13,North,360,0.0,0.0,92,0.00,OVC,,0.00,WeatherDisplay:10.37,2013-07-31 09:27:00,
2013-07-31 05:32:00,57.9,55.6,30.13,North,360,0.0,0.0,92,0.00,OVC,,0.00,WeatherDisplay:10.37,2013-07-31 09:32:00,
2013-07-31 05:37:00,57.8,55.5,30.13,North,360,0.0,0.0,92,0.00,OVC,,0.00,WeatherDisplay:10.37,2013-07-31 09:37:00,
2013-07-31 05:42:00,57.7,55.4,30.13,North,360,0.0,0.0,92,0.00,OVC,,0.00,WeatherDisplay:10.37,2013-07-31 09:42:00,
2013-07-31 05:48:00,57.6,55.3,30.13,North,360,0.0,0.0,92,0.00,OVC,,0.00,WeatherDisplay:10.37,2013-07-31 09:48:00,
2013-07-31 05:53:00,57.6,55.6,30.13,North,360,0.0,0.0,93,0.00,OVC,,0.00,WeatherDisplay:10.37,2013-07-31 09:53:00,
2013-07-31 05:58:00,57.6,55.6,30.13,North,360,0.0,0.0,93,0.00,OVC,,0.00,WeatherDisplay:10.37,2013-07-31 09:58:00,
2013-07-31 06:03:00,57.6,55.6,30.13,North,360,0.0,0.0,93,0.00,OVC,,0.00,WeatherDisplay:10.37,2013-07-31 10:03:00,
2013-07-31 06:08:00,57.5,55.5,30.13,North,360,0.0,0.0,93,0.00,OVC,,0.00,WeatherDisplay:10.37,2013-07-31 10:08:00,
2013-07-31 06:13:00,57.5,55.5,30.13,North,360,0.0,0.0,93,0.00,OVC,,0.00,WeatherDisplay:10.37,2013-07-31 10:13:00,
2013-07-31 06:18:00,57.6,55.6,30.14,North,360,0.0,0.0,93,0.00,OVC,,0.00,WeatherDisplay:10.37,2013-07-31 10:18:00,
2013-07-31 06:23:00,57.6,55.6,30.14,North,360,0.0,0.0,93,0.00,OVC,,0.00,WeatherDisplay:10.37,2013-07-31 10:23:00,
2013-07-31 06:28:00,57.7,55.7,30.14,North,360,0.0,0.0,93,0.00,OVC,,0.00,WeatherDisplay:10.37,2013-07-31 10:28:00,
2013-07-31 06:33:00,57.8,55.8,30.14,North,360,0.0,0.0,93,0.00,OVC,,0.00,WeatherDisplay:10.37,2013-07-31 10:33:00,
2013-07-31 06:38:00,57.9,55.9,30.14,North,360,0.0,0.0,93,0.00,OVC,,0.00,WeatherDisplay:10.37,2013-07-31 10:38:00,
2013-07-31 06:43:00,58.0,56.0,30.14,North,360,0.0,0.0,93,0.00,OVC,,0.00,WeatherDisplay:10.37,2013-07-31 10:43:00,
2013-07-31 06:48:00,58.0,56.0,30.14,North,360,0.0,0.0,93,0.00,OVC,,0.00,WeatherDisplay:10.37,2013-07-31 10:48:00,
2013-07-31 06:53:00,58.2,56.2,30.14,North,360,0.0,0.0,93,0.00,OVC,,0.00,WeatherDisplay:10.37,2013-07-31 10:53:00,
2013-07-31 06:58:00,58.4,56.7,30.14,North,360,0.0,0.0,94,0.00,OVC,,0.00,WeatherDisplay:10.37,2013-07-31 10:58:00,
2013-07-31 07:03:00,58.6,56.9,30.14,North,360,0.0,0.0,94,0.00,OVC,,0.00,WeatherDisplay:10.37,2013-07-31 11:03:00,
2013-07-31 07:08:00,58.8,57.1,30.14,North,360,0.0,0.0,94,0.00,OVC,,0.00,WeatherDisplay:10.37,2013-07-31 11:08:00,
2013-07-31 07:13:00,59.0,57.3,30.14,North,360,0.0,0.0,94,0.00,OVC,,0.00,WeatherDisplay:10.37,2013-07-31 11:13:00,
2013-07-31 07:18:00,59.2,57.5,30.14,North,360,0.0,0.0,94,0.00,OVC,,0.00,WeatherDisplay:10.37,2013-07-31 11:18:00,
2013-07-31 07:23:00,59.4,57.7,30.13,North,360,0.0,0.0,94,0.00,OVC,,0.00,WeatherDisplay:10.37,2013-07-31 11:23:00,
2013-07-31 07:28:00,59.6,57.9,30.13,North,360,0.0,0.0,94,0.00,OVC,,0.00,WeatherDisplay:10.37,2013-07-31 11:28:00,
2013-07-31 07:33:00,59.8,58.1,30.13,North,360,0.0,0.0,94,0.00,OVC,,0.00,WeatherDisplay:10.37,2013-07-31 11:33:00,
2013-07-31 07:38:00,60.1,58.4,30.13,North,360,0.0,0.0,94,0.00,OVC,,0.00,WeatherDisplay:10.37,2013-07-31 11:38:00,
2013-07-31 07:43:00,60.4,58.7,30.13,North,360,0.0,0.0,94,0.00,OVC,,0.00,WeatherDisplay:10.37,2013-07-31 11:43:00,
2013-07-31 07:48:00,60.6,58.9,30.13,North,360,0.0,0.0,94,0.00,OVC,,0.00,WeatherDisplay:10.37,2013-07-31 11:48:00,
2013-07-31 07:53:00,60.7,59.0,30.13,North,360,0.0,0.0,94,0.00,OVC,,0.00,WeatherDisplay:10.37,2013-07-31 11:53:00,
2013-07-31 07:58:00,60.9,59.2,30.13,North,360,0.0,0.0,94,0.00,OVC,,0.00,WeatherDisplay:10.37,2013-07-31 11:58:00,
2013-07-31 08:03:00,61.1,59.4,30.13,North,360,0.0,0.0,94,0.00,OVC,,0.00,WeatherDisplay:10.37,2013-07-31 12:03:00,
2013-07-31 08:08:00,61.2,59.5,30.13,North,360,0.0,0.0,94,0.00,OVC,,0.00,WeatherDisplay:10.37,2013-07-31 12:08:00,
2013-07-31 08:13:00,61.4,59.7,30.13,North,360,0.0,0.0,94,0.00,OVC,,0.00,WeatherDisplay:10.37,2013-07-31 12:13:00,
2013-07-31 08:18:00,61.6,59.9,30.13,North,360,0.0,0.0,94,0.00,OVC,,0.00,WeatherDisplay:10.37,2013-07-31 12:18:00,
2013-07-31 08:23:00,61.7,60.0,30.13,North,360,0.0,0.0,94,0.00,OVC,,0.00,WeatherDisplay:10.37,2013-07-31 12:23:00,
2013-07-31 08:28:00,61.9,60.2,30.13,North,360,0.0,0.0,94,0.00,OVC,,0.00,WeatherDisplay:10.37,2013-07-31 12:28:00,
2013-07-31 08:33:00,62.2,60.5,30.13,North,360,0.0,0.0,94,0.00,OVC,,0.00,WeatherDisplay:10.37,2013-07-31 12:33:00,
2013-07-31 08:38:00,62.5,60.7,30.13,North,360,0.0,0.0,94,0.00,OVC,,0.00,WeatherDisplay:10.37,2013-07-31 12:38:00,
2013-07-31 08:43:00,62.7,60.9,30.13,North,360,0.0,0.0,94,0.00,OVC,,0.00,WeatherDisplay:10.37,2013-07-31 12:43:00,
2013-07-31 08:48:00,62.9,60.8,30.13,North,360,0.0,0.0,93,0.00,OVC,,0.00,WeatherDisplay:10.37,2013-07-31 12:48:00,
2013-07-31 08:53:00,63.2,61.1,30.13,North,360,0.0,0.0,93,0.00,OVC,,0.00,WeatherDisplay:10.37,2013-07-31 12:53:00,
2013-07-31 08:58:00,63.5,61.1,30.13,North,360,0.0,0.0,92,0.00,OVC,,0.00,WeatherDisplay:10.37,2013-07-31 12:58:00,
2013-07-31 09:03:00,63.9,60.9,30.13,North,360,0.0,0.0,90,0.00,OVC,,0.00,WeatherDisplay:10.37,2013-07-31 13:03:00,
2013-07-31 09:08:00,64.6,61.0,30.13,North,360,0.0,0.0,88,0.00,OVC,,0.00,WeatherDisplay:10.37,2013-07-31 13:08:00,
2013-07-31 09:13:00,65.5,61.5,30.12,North,360,0.0,0.0,87,0.00,OVC,,0.00,WeatherDisplay:10.37,2013-07-31 13:13:00,
2013-07-31 09:18:00,66.1,61.5,30.13,North,360,0.0,0.0,85,0.00,OVC,,0.00,WeatherDisplay:10.37,2013-07-31 13:18:00,
2013-07-31 09:23:00,66.7,61.7,30.13,North,360,0.0,0.0,84,0.00,OVC,,0.00,WeatherDisplay:10.37,2013-07-31 13:23:00,
2013-07-31 09:28:00,67.1,61.4,30.13,North,360,0.0,0.0,82,0.00,OVC,,0.00,WeatherDisplay:10.37,2013-07-31 13:28:00,
2013-07-31 09:33:00,67.6,62.3,30.13,North,360,0.0,0.0,83,0.00,OVC,,0.00,WeatherDisplay:10.37,2013-07-31 13:33:00,
2013-07-31 09:38:00,67.9,62.2,30.12,North,360,0.0,0.0,82,0.00,OVC,,0.00,WeatherDisplay:10.37,2013-07-31 13:38:00,
2013-07-31 09:43:00,68.3,62.2,30.12,North,360,0.0,0.0,81,0.00,OVC,,0.00,WeatherDisplay:10.37,2013-07-31 13:43:00,
2013-07-31 09:48:00,68.5,61.4,30.12,North,360,0.0,0.0,78,0.00,OVC,,0.00,WeatherDisplay:10.37,2013-07-31 13:48:00,
2013-07-31 09:53:00,68.8,61.7,30.12,North,360,0.0,0.0,78,0.00,OVC,,0.00,WeatherDisplay:10.37,2013-07-31 13:53:00,
2013-07-31 09:58:00,69.1,61.6,30.11,North,360,0.0,0.0,77,0.00,OVC,,0.00,WeatherDisplay:10.37,2013-07-31 13:58:00,
2013-07-31 10:03:00,69.5,61.2,30.11,North,360,0.0,0.0,75,0.00,OVC,,0.00,WeatherDisplay:10.37,2013-07-31 14:03:00,
2013-07-31 10:08:00,70.1,61.4,30.11,North,360,0.0,0.0,74,0.00,OVC,,0.00,WeatherDisplay:10.37,2013-07-31 14:08:00,
2013-07-31 10:13:00,70.5,61.8,30.11,North,360,0.0,0.0,74,0.00,OVC,,0.00,WeatherDisplay:10.37,2013-07-31 14:13:00,
2013-07-31 10:18:00,71.1,63.1,30.11,North,360,0.0,0.0,76,0.00,OVC,,0.00,WeatherDisplay:10.37,2013-07-31 14:18:00,
2013-07-31 10:23:00,71.6,62.9,30.11,North,360,0.0,0.0,74,0.00,OVC,,0.00,WeatherDisplay:10.37,2013-07-31 14:23:00,
2013-07-31 10:28:00,71.9,62.0,30.11,North,360,0.0,0.0,71,0.00,OVC,,0.00,WeatherDisplay:10.37,2013-07-31 14:28:00,
2013-07-31 10:33:00,72.2,61.5,30.11,North,360,0.0,0.0,69,0.00,OVC,,0.00,WeatherDisplay:10.37,2013-07-31 14:33:00,
2013-07-31 10:38:00,72.4,62.9,30.10,North,360,0.0,0.0,72,0.00,OVC,,0.00,WeatherDisplay:10.37,2013-07-31 14:38:00,
2013-07-31 10:43:00,72.7,62.8,30.10,North,360,0.0,0.0,71,0.00,OVC,,0.00,WeatherDisplay:10.37,2013-07-31 14:43:00,
2013-07-31 10:48:00,72.9,63.3,30.10,North,360,0.0,0.0,72,0.00,OVC,,0.00,WeatherDisplay:10.37,2013-07-31 14:48:00,
2013-07-31 10:53:00,73.0,62.2,30.10,North,360,0.0,0.0,69,0.00,OVC,,0.00,WeatherDisplay:10.37,2013-07-31 14:53:00,
2013-07-31 10:58:00,73.1,61.5,30.10,North,360,0.0,0.0,67,0.00,OVC,,0.00,WeatherDisplay:10.37,2013-07-31 14:58:00,
2013-07-31 11:03:00,73.2,62.4,30.10,North,360,0.0,0.0,69,0.00,OVC,,0.00,WeatherDisplay:10.37,2013-07-31 15:03:00,
2013-07-31 11:08:00,73.2,62.0,30.10,North,360,0.0,0.0,68,0.00,OVC,,0.00,WeatherDisplay:10.37,2013-07-31 15:08:00,
2013-07-31 11:13:00,73.3,63.3,30.10,North,360,0.0,0.0,71,0.00,OVC,,0.00,WeatherDisplay:10.37,2013-07-31 15:13:00,
2013-07-31 11:18:00,73.1,61.9,30.10,North,360,0.0,0.0,68,0.00,OVC,,0.00,WeatherDisplay:10.37,2013-07-31 15:18:00,
2013-07-31 11:23:00,73.1,62.3,30.10,North,360,0.0,0.0,69,0.00,OVC,,0.00,WeatherDisplay:10.37,2013-07-31 15:23:00,
2013-07-31 11:28:00,73.1,62.3,30.10,North,360,0.0,0.0,69,0.00,OVC,,0.00,WeatherDisplay:10.37,2013-07-31 15:28:00,
2013-07-31 11:33:00,73.3,63.3,30.10,North,360,0.0,0.0,71,0.00,OVC,,0.00,WeatherDisplay:10.37,2013-07-31 15:33:00,
2013-07-31 11:38:00,73.5,62.3,30.10,North,360,0.0,0.0,68,0.00,OVC,,0.00,WeatherDisplay:10.37,2013-07-31 15:38:00,
2013-07-31 11:43:00,73.8,62.6,30.10,North,360,0.0,0.0,68,0.00,OVC,,0.00,WeatherDisplay:10.37,2013-07-31 15:43:00,
2013-07-31 11:48:00,74.0,62.3,30.09,North,360,0.0,0.0,67,0.00,OVC,,0.00,WeatherDisplay:10.37,2013-07-31 15:48:00,
2013-07-31 11:53:00,74.1,62.4,30.09,North,360,0.0,0.0,67,0.00,OVC,,0.00,WeatherDisplay:10.37,2013-07-31 15:53:00,
2013-07-31 11:58:00,74.1,61.6,30.09,North,360,0.0,0.0,65,0.00,OVC,,0.00,WeatherDisplay:10.37,2013-07-31 15:58:00,
2013-07-31 12:03:00,74.3,62.6,30.09,North,360,0.0,0.0,67,0.00,OVC,,0.00,WeatherDisplay:10.37,2013-07-31 16:03:00,
2013-07-31 12:08:00,74.6,61.6,30.08,North,360,0.0,0.0,64,0.00,OVC,,0.00,WeatherDisplay:10.37,2013-07-31 16:08:00,
2013-07-31 12:13:00,74.6,62.1,30.08,North,360,0.0,0.0,65,0.00,OVC,,0.00,WeatherDisplay:10.37,2013-07-31 16:13:00,
2013-07-31 12:18:00,74.5,62.0,30.08,North,360,0.0,0.0,65,0.00,OVC,,0.00,WeatherDisplay:10.37,2013-07-31 16:18:00,
2013-07-31 12:23:00,74.2,62.5,30.08,North,360,0.0,0.0,67,0.00,OVC,,0.00,WeatherDisplay:10.37,2013-07-31 16:23:00,
2013-07-31 12:28:00,74.0,62.8,30.08,North,360,0.0,0.0,68,0.00,OVC,,0.00,WeatherDisplay:10.37,2013-07-31 16:28:00,
2013-07-31 12:33:00,73.9,62.7,30.08,North,360,0.0,0.0,68,0.00,OVC,,0.00,WeatherDisplay:10.37,2013-07-31 16:33:00,
2013-07-31 12:38:00,73.7,62.5,30.08,North,360,0.0,0.0,68,0.00,OVC,,0.00,WeatherDisplay:10.37,2013-07-31 16:38:00,
2013-07-31 12:43:00,73.5,63.1,30.08,North,360,0.0,0.0,70,0.00,OVC,,0.00,WeatherDisplay:10.37,2013-07-31 16:43:00,
2013-07-31 12:48:00,73.3,62.5,30.08,North,360,0.0,0.0,69,0.00,OVC,,0.00,WeatherDisplay:10.37,2013-07-31 16:48:00,
2013-07-31 12:53:00,73.1,63.1,30.08,North,360,0.0,0.0,71,0.00,OVC,,0.00,WeatherDisplay:10.37,2013-07-31 16:53:00,
2013-07-31 12:58:00,73.0,63.8,30.07,North,360,0.0,0.0,73,0.00,OVC,,0.00,WeatherDisplay:10.37,2013-07-31 16:58:00,
2013-07-31 13:03:00,73.0,64.2,30.07,North,360,0.0,0.0,74,0.00,OVC,,0.00,WeatherDisplay:10.37,2013-07-31 17:03:00,
2013-07-31 13:08:00,73.0,64.2,30.07,North,360,0.0,0.0,74,0.00,OVC,,0.00,WeatherDisplay:10.37,2013-07-31 17:08:00,
2013-07-31 13:13:00,73.0,65.0,30.07,North,360,0.0,0.0,76,0.00,OVC,,0.00,WeatherDisplay:10.37,2013-07-31 17:13:00,
2013-07-31 13:18:00,73.0,64.2,30.07,North,360,0.0,0.0,74,0.00,OVC,,0.00,WeatherDisplay:10.37,2013-07-31 17:18:00,
2013-07-31 13:23:00,72.9,63.7,30.07,North,360,0.0,0.0,73,0.00,OVC,,0.00,WeatherDisplay:10.37,2013-07-31 17:23:00,
2013-07-31 13:28:00,72.8,63.2,30.07,North,360,0.0,0.0,72,0.00,OVC,,0.00,WeatherDisplay:10.37,2013-07-31 17:28:00,
2013-07-31 13:33:00,72.7,63.5,30.07,North,360,0.0,0.0,73,0.00,OVC,,0.00,WeatherDisplay:10.37,2013-07-31 17:33:00,
2013-07-31 13:38:00,72.6,63.1,30.07,North,360,0.0,0.0,72,0.00,OVC,,0.00,WeatherDisplay:10.37,2013-07-31 17:38:00,
2013-07-31 13:43:00,72.6,63.1,30.07,North,360,0.0,0.0,72,0.00,OVC,,0.00,WeatherDisplay:10.37,2013-07-31 17:43:00,
2013-07-31 13:48:00,72.7,63.9,30.07,North,360,0.0,0.0,74,0.00,OVC,,0.00,WeatherDisplay:10.37,2013-07-31 17:48:00,
2013-07-31 13:53:00,72.7,63.9,30.07,North,360,0.0,0.0,74,0.00,OVC,,0.00,WeatherDisplay:10.37,2013-07-31 17:53:00,
2013-07-31 13:58:00,72.8,64.4,30.07,North,360,0.0,0.0,75,0.00,OVC,,0.00,WeatherDisplay:10.37,2013-07-31 17:58:00,
2013-07-31 14:03:00,73.1,64.3,30.07,North,360,0.0,0.0,74,0.00,BKN,,0.00,WeatherDisplay:10.37,2013-07-31 18:03:00,
2013-07-31 14:08:00,73.5,63.9,30.07,North,360,0.0,0.0,72,0.00,BKN,,0.00,WeatherDisplay:10.37,2013-07-31 18:08:00,
2013-07-31 14:13:00,74.0,64.0,30.06,North,360,0.0,0.0,71,0.00,BKN,,0.00,WeatherDisplay:10.37,2013-07-31 18:13:00,
2013-07-31 14:18:00,74.3,63.9,30.06,North,360,0.0,0.0,70,0.00,BKN,,0.00,WeatherDisplay:10.37,2013-07-31 18:18:00,
2013-07-31 14:23:00,74.6,65.0,30.06,North,360,0.0,0.0,72,0.00,BKN,,0.00,WeatherDisplay:10.37,2013-07-31 18:23:00,
2013-07-31 14:28:00,74.9,63.6,30.06,North,360,0.0,0.0,68,0.00,BKN,,0.00,WeatherDisplay:10.37,2013-07-31 18:28:00,
2013-07-31 14:33:00,75.5,65.4,30.05,North,360,0.0,0.0,71,0.00,BKN,,0.00,WeatherDisplay:10.37,2013-07-31 18:33:00,
2013-07-31 14:38:00,76.1,64.3,30.05,North,360,0.0,0.0,67,0.00,BKN,,0.00,WeatherDisplay:10.37,2013-07-31 18:38:00,
2013-07-31 14:43:00,76.2,63.1,30.05,North,360,0.0,0.0,64,0.00,BKN,,0.00,WeatherDisplay:10.37,2013-07-31 18:43:00,
2013-07-31 14:48:00,76.4,64.2,30.05,North,360,0.0,0.0,66,0.00,BKN,,0.00,WeatherDisplay:10.37,2013-07-31 18:48:00,
2013-07-31 14:53:00,76.4,64.6,30.05,North,360,0.0,0.0,67,0.00,BKN,,0.00,WeatherDisplay:10.37,2013-07-31 18:53:00,
2013-07-31 14:58:00,76.2,64.4,30.05,North,360,0.0,0.0,67,0.00,BKN,,0.00,WeatherDisplay:10.37,2013-07-31 18:58:00,
2013-07-31 15:03:00,76.1,63.9,30.05,North,360,0.0,0.0,66,0.00,BKN,,0.00,WeatherDisplay:10.37,2013-07-31 19:03:00,
2013-07-31 15:08:00,75.8,64.5,30.05,North,360,0.0,0.0,68,0.00,BKN,,0.00,WeatherDisplay:10.37,2013-07-31 19:08:00,
2013-07-31 15:13:00,75.7,64.0,30.04,North,360,0.0,0.0,67,0.00,BKN,,0.00,WeatherDisplay:10.37,2013-07-31 19:13:00,
2013-07-31 15:18:00,75.5,63.8,30.04,North,360,0.0,0.0,67,0.00,BKN,,0.00,WeatherDisplay:10.37,2013-07-31 19:18:00,
2013-07-31 15:23:00,75.3,64.0,30.04,North,360,0.0,0.0,68,0.00,BKN,,0.00,WeatherDisplay:10.37,2013-07-31 19:23:00,
2013-07-31 15:28:00,75.3,63.2,30.04,North,360,0.0,0.0,66,0.00,BKN,,0.00,WeatherDisplay:10.37,2013-07-31 19:28:00,
2013-07-31 15:33:00,75.2,62.6,30.04,North,360,0.0,0.0,65,0.00,BKN,,0.00,WeatherDisplay:10.37,2013-07-31 19:33:00,
2013-07-31 15:38:00,75.3,62.7,30.04,North,360,0.0,0.0,65,0.00,BKN,,0.00,WeatherDisplay:10.37,2013-07-31 19:38:00,
2013-07-31 15:43:00,75.4,63.2,30.04,North,360,0.0,0.0,66,0.00,BKN,,0.00,WeatherDisplay:10.37,2013-07-31 19:43:00,
2013-07-31 15:48:00,75.4,62.8,30.04,North,360,0.0,0.0,65,0.00,BKN,,0.00,WeatherDisplay:10.37,2013-07-31 19:48:00,
2013-07-31 15:53:00,75.1,63.0,30.03,North,360,0.0,0.0,66,0.00,BKN,,0.00,WeatherDisplay:10.37,2013-07-31 19:53:00,
2013-07-31 15:58:00,74.9,64.0,30.03,North,360,0.0,0.0,69,0.00,BKN,,0.00,WeatherDisplay:10.37,2013-07-31 19:58:00,
2013-07-31 16:03:00,74.5,63.2,30.03,North,360,0.0,0.0,68,0.00,OVC,,0.00,WeatherDisplay:10.37,2013-07-31 20:03:00,
2013-07-31 16:08:00,74.2,63.0,30.03,North,360,0.0,0.0,68,0.00,OVC,,0.00,WeatherDisplay:10.37,2013-07-31 20:08:00,
2013-07-31 16:13:00,74.0,64.4,30.03,North,360,0.0,0.0,72,0.00,OVC,,0.00,WeatherDisplay:10.37,2013-07-31 20:13:00,
2013-07-31 16:18:00,73.9,63.9,30.03,North,360,0.0,0.0,71,0.00,OVC,,0.00,WeatherDisplay:10.37,2013-07-31 20:18:00,
2013-07-31 16:23:00,73.8,63.4,30.03,North,360,0.0,0.0,70,0.00,OVC,,0.00,WeatherDisplay:10.37,2013-07-31 20:23:00,
2013-07-31 16:28:00,73.8,64.2,30.03,North,360,0.0,0.0,72,0.00,OVC,,0.00,WeatherDisplay:10.37,2013-07-31 20:28:00,
2013-07-31 16:33:00,73.8,63.8,30.03,North,360,0.0,0.0,71,0.00,OVC,,0.00,WeatherDisplay:10.37,2013-07-31 20:33:00,
2013-07-31 16:38:00,73.8,64.6,30.02,North,360,0.0,0.0,73,0.00,OVC,,0.00,WeatherDisplay:10.37,2013-07-31 20:38:00,
2013-07-31 16:43:00,73.8,63.4,30.02,North,360,0.0,0.0,70,0.00,OVC,,0.00,WeatherDisplay:10.37,2013-07-31 20:43:00,
2013-07-31 16:48:00,73.7,63.7,30.02,North,360,0.0,0.0,71,0.00,OVC,,0.00,WeatherDisplay:10.37,2013-07-31 20:48:00,
2013-07-31 16:53:00,73.6,63.6,30.02,North,360,0.0,0.0,71,0.00,OVC,,0.00,WeatherDisplay:10.37,2013-07-31 20:53:00,
2013-07-31 16:58:00,73.5,63.5,30.02,North,360,0.0,0.0,71,0.00,OVC,,0.00,WeatherDisplay:10.37,2013-07-31 20:58:00,
2013-07-31 17:03:00,73.4,63.8,30.02,North,360,0.0,0.0,72,0.00,OVC,,0.00,WeatherDisplay:10.37,2013-07-31 21:03:00,
2013-07-31 17:08:00,73.3,63.7,30.02,North,360,0.0,0.0,72,0.00,OVC,,0.00,WeatherDisplay:10.37,2013-07-31 21:08:00,
2013-07-31 17:13:00,73.2,64.4,30.02,North,360,0.0,0.0,74,0.00,OVC,,0.00,WeatherDisplay:10.37,2013-07-31 21:13:00,
2013-07-31 17:18:00,73.1,64.7,30.02,North,360,0.0,0.0,75,0.00,OVC,,0.00,WeatherDisplay:10.37,2013-07-31 21:18:00,
2013-07-31 17:23:00,73.0,63.8,30.01,North,360,0.0,0.0,73,0.00,OVC,,0.00,WeatherDisplay:10.37,2013-07-31 21:23:00,
2013-07-31 17:28:00,73.0,64.2,30.01,North,360,0.0,0.0,74,0.00,OVC,,0.00,WeatherDisplay:10.37,2013-07-31 21:28:00,
2013-07-31 17:33:00,73.0,64.6,30.01,North,360,0.0,0.0,75,0.00,OVC,,0.00,WeatherDisplay:10.37,2013-07-31 21:33:00,
2013-07-31 17:38:00,72.9,63.7,30.01,North,360,0.0,0.0,73,0.00,OVC,,0.00,WeatherDisplay:10.37,2013-07-31 21:38:00,
2013-07-31 17:43:00,72.8,64.0,30.01,North,360,0.0,0.0,74,0.00,OVC,,0.00,WeatherDisplay:10.37,2013-07-31 21:43:00,
2013-07-31 17:48:00,72.9,64.1,30.01,North,360,0.0,0.0,74,0.00,OVC,,0.00,WeatherDisplay:10.37,2013-07-31 21:48:00,
2013-07-31 17:53:00,72.9,64.1,30.01,North,360,0.0,0.0,74,0.00,OVC,,0.00,WeatherDisplay:10.37,2013-07-31 21:53:00,
2013-07-31 17:58:00,73.0,64.6,30.01,North,360,0.0,0.0,75,0.00,OVC,,0.00,WeatherDisplay:10.37,2013-07-31 21:58:00,
2013-07-31 18:03:00,73.0,64.6,30.00,North,360,0.0,0.0,75,0.00,OVC,,0.00,WeatherDisplay:10.37,2013-07-31 22:03:00,
2013-07-31 18:08:00,73.1,63.9,30.00,North,360,0.0,0.0,73,0.00,OVC,,0.00,WeatherDisplay:10.37,2013-07-31 22:08:00,
2013-07-31 18:13:00,73.2,64.4,30.00,North,360,0.0,0.0,74,0.00,OVC,,0.00,WeatherDisplay:10.37,2013-07-31 22:13:00,
2013-07-31 18:18:00,73.3,64.5,30.00,North,360,0.0,0.0,74,0.00,OVC,,0.00,WeatherDisplay:10.37,2013-07-31 22:18:00,
2013-07-31 18:23:00,73.3,64.1,30.00,North,360,0.0,0.0,73,0.00,OVC,,0.00,WeatherDisplay:10.37,2013-07-31 22:23:00,
2013-07-31 18:28:00,73.3,64.5,30.00,North,360,0.0,0.0,74,0.00,OVC,,0.00,WeatherDisplay:10.37,2013-07-31 22:28:00,
2013-07-31 18:33:00,73.1,63.9,30.00,North,360,0.0,0.0,73,0.00,OVC,,0.00,WeatherDisplay:10.37,2013-07-31 22:33:00,
2013-07-31 18:38:00,73.0,64.2,30.00,North,360,0.0,0.0,74,0.00,OVC,,0.00,WeatherDisplay:10.37,2013-07-31 22:38:00,
2013-07-31 18:43:00,73.0,64.2,29.99,North,360,0.0,0.0,74,0.00,OVC,,0.00,WeatherDisplay:10.37,2013-07-31 22:43:00,
2013-07-31 18:48:00,73.0,64.6,29.99,North,360,0.0,0.0,75,0.00,OVC,,0.00,WeatherDisplay:10.37,2013-07-31 22:48:00,
2013-07-31 18:53:00,73.0,64.6,29.99,North,360,0.0,0.0,75,0.00,OVC,,0.00,WeatherDisplay:10.37,2013-07-31 22:53:00,
2013-07-31 18:58:00,72.9,64.5,29.99,North,360,0.0,0.0,75,0.00,OVC,,0.00,WeatherDisplay:10.37,2013-07-31 22:58:00,
2013-07-31 19:03:00,72.8,64.4,29.99,North,360,0.0,0.0,75,0.00,OVC,,0.00,WeatherDisplay:10.37,2013-07-31 23:03:00,
2013-07-31 19:08:00,72.7,64.7,29.99,North,360,0.0,0.0,76,0.00,OVC,,0.00,WeatherDisplay:10.37,2013-07-31 23:08:00,
2013-07-31 19:13:00,72.7,64.3,29.98,North,360,0.0,0.0,75,0.00,OVC,,0.00,WeatherDisplay:10.37,2013-07-31 23:13:00,
2013-07-31 19:18:00,72.6,63.8,29.99,North,360,0.0,0.0,74,0.00,OVC,,0.00,WeatherDisplay:10.37,2013-07-31 23:18:00,
2013-07-31 19:23:00,72.5,64.5,29.98,North,360,0.0,0.0,76,0.00,OVC,,0.00,WeatherDisplay:10.37,2013-07-31 23:23:00,
2013-07-31 19:28:00,72.5,64.9,29.98,North,360,0.0,0.0,77,0.00,OVC,,0.00,WeatherDisplay:10.37,2013-07-31 23:28:00,
2013-07-31 19:33:00,72.4,64.8,29.98,North,360,0.0,0.0,77,0.00,OVC,,0.00,WeatherDisplay:10.37,2013-07-31 23:33:00,
2013-07-31 19:38:00,72.3,64.3,29.98,North,360,0.0,0.0,76,0.00,OVC,,0.00,WeatherDisplay:10.37,2013-07-31 23:38:00,
2013-07-31 19:43:00,72.2,64.6,29.98,North,360,0.0,0.0,77,0.00,OVC,,0.00,WeatherDisplay:10.37,2013-07-31 23:43:00,
2013-07-31 19:48:00,72.0,64.0,29.98,North,360,0.0,0.0,76,0.00,OVC,,0.00,WeatherDisplay:10.37,2013-07-31 23:48:00,
2013-07-31 19:53:00,71.7,63.7,29.98,North,360,0.0,0.0,76,0.00,OVC,,0.00,WeatherDisplay:10.37,2013-07-31 23:53:00,
2013-07-31 19:58:00,71.5,63.5,29.97,North,360,0.0,0.0,76,0.00,OVC,,0.00,WeatherDisplay:10.37,2013-07-31 23:58:00,
2013-07-31 20:03:00,71.3,63.3,29.97,North,360,0.0,0.0,76,0.00,BKN,,0.00,WeatherDisplay:10.37,2013-08-01 00:03:00,
2013-07-31 20:08:00,71.1,63.1,29.97,North,360,0.0,0.0,76,0.00,BKN,,0.00,WeatherDisplay:10.37,2013-08-01 00:08:00,
2013-07-31 20:13:00,70.9,63.0,29.97,North,360,0.0,0.0,76,0.00,BKN,,0.00,WeatherDisplay:10.37,2013-08-01 00:13:00,
2013-07-31 20:18:00,70.8,63.2,29.97,North,360,0.0,0.0,77,0.00,BKN,,0.00,WeatherDisplay:10.37,2013-08-01 00:18:00,
2013-07-31 20:23:00,70.6,63.0,29.97,North,360,0.0,0.0,77,0.00,BKN,,0.00,WeatherDisplay:10.37,2013-08-01 00:23:00,
2013-07-31 20:28:00,70.5,63.3,29.97,North,360,0.0,0.0,78,0.00,BKN,,0.00,WeatherDisplay:10.37,2013-08-01 00:28:00,
2013-07-31 20:33:00,70.4,63.2,29.96,North,360,0.0,0.0,78,0.00,BKN,,0.00,WeatherDisplay:10.37,2013-08-01 00:33:00,
2013-07-31 20:38:00,70.3,63.1,29.96,North,360,0.0,0.0,78,0.00,BKN,,0.00,WeatherDisplay:10.37,2013-08-01 00:38:00,
2013-07-31 20:43:00,70.1,62.9,29.96,North,360,0.0,0.0,78,0.00,BKN,,0.00,WeatherDisplay:10.37,2013-08-01 00:43:00,
2013-07-31 20:48:00,70.0,63.2,29.96,North,360,0.0,0.0,79,0.00,BKN,,0.00,WeatherDisplay:10.37,2013-08-01 00:48:00,
2013-07-31 20:53:00,69.8,63.0,29.96,North,360,0.0,0.0,79,0.00,BKN,,0.00,WeatherDisplay:10.37,2013-08-01 00:53:00,
2013-07-31 20:58:00,69.6,62.8,29.96,North,360,0.0,0.0,79,0.00,BKN,,0.00,WeatherDisplay:10.37,2013-08-01 00:58:00,
2013-07-31 21:03:00,69.3,62.9,29.96,North,360,0.0,0.0,80,0.00,BKN,,0.00,WeatherDisplay:10.37,2013-08-01 01:03:00,
2013-07-31 21:08:00,69.1,62.7,29.96,North,360,0.0,0.0,80,0.00,BKN,,0.00,WeatherDisplay:10.37,2013-08-01 01:08:00,
2013-07-31 21:13:00,68.8,62.7,29.96,North,360,0.0,0.0,81,0.00,BKN,,0.00,WeatherDisplay:10.37,2013-08-01 01:13:00,
2013-07-31 21:18:00,68.6,62.5,29.96,North,360,0.0,0.0,81,0.00,BKN,,0.00,WeatherDisplay:10.37,2013-08-01 01:18:00,
2013-07-31 21:23:00,68.4,62.7,29.96,North,360,0.0,0.0,82,0.00,BKN,,0.00,WeatherDisplay:10.37,2013-08-01 01:23:00,
2013-07-31 21:28:00,68.2,62.8,29.95,North,360,0.0,0.0,83,0.00,BKN,,0.00,WeatherDisplay:10.37,2013-08-01 01:28:00,
2013-07-31 21:33:00,68.0,62.6,29.95,North,360,0.0,0.0,83,0.00,BKN,,0.00,WeatherDisplay:10.37,2013-08-01 01:33:00,
2013-07-31 21:38:00,67.8,62.8,29.95,North,360,0.0,0.0,84,0.00,BKN,,0.00,WeatherDisplay:10.37,2013-08-01 01:38:00,
2013-07-31 21:43:00,67.7,62.7,29.95,North,360,0.0,0.0,84,0.00,BKN,,0.00,WeatherDisplay:10.37,2013-08-01 01:43:00,
2013-07-31 21:48:00,67.6,62.9,29.95,North,360,0.0,0.0,85,0.00,BKN,,0.00,WeatherDisplay:10.37,2013-08-01 01:48:00,
2013-07-31 21:53:00,67.5,62.8,29.96,North,360,0.0,0.0,85,0.00,BKN,,0.00,WeatherDisplay:10.37,2013-08-01 01:53:00,
2013-07-31 21:58:00,67.4,63.1,29.95,North,360,0.0,0.0,86,0.00,BKN,,0.00,WeatherDisplay:10.37,2013-08-01 01:58:00,
2013-07-31 22:03:00,67.4,62.7,29.95,North,360,0.0,0.0,85,0.00,BKN,,0.00,WeatherDisplay:10.37,2013-08-01 02:03:00,
2013-07-31 22:08:00,67.3,63.0,29.96,North,360,0.0,0.0,86,0.00,BKN,,0.00,WeatherDisplay:10.37,2013-08-01 02:08:00,
2013-07-31 22:13:00,67.2,62.9,29.95,North,360,0.0,0.0,86,0.00,BKN,,0.00,WeatherDisplay:10.37,2013-08-01 02:13:00,
2013-07-31 22:18:00,67.2,62.9,29.95,North,360,0.0,0.0,86,0.00,BKN,,0.00,WeatherDisplay:10.37,2013-08-01 02:18:00,
2013-07-31 22:23:00,67.2,62.9,29.96,North,360,0.0,0.0,86,0.00,BKN,,0.00,WeatherDisplay:10.37,2013-08-01 02:23:00,
2013-07-31 22:28:00,67.1,62.8,29.96,North,360,0.0,0.0,86,0.00,BKN,,0.00,WeatherDisplay:10.37,2013-08-01 02:28:00,
2013-07-31 22:33:00,67.1,62.8,29.95,North,360,0.0,0.0,86,0.00,BKN,,0.00,WeatherDisplay:10.37,2013-08-01 02:33:00,
2013-07-31 22:38:00,67.0,62.7,29.95,North,360,0.0,0.0,86,0.00,BKN,,0.00,WeatherDisplay:10.37,2013-08-01 02:38:00,
2013-07-31 22:43:00,66.9,62.6,29.95,North,360,0.0,0.0,86,0.00,BKN,,0.00,WeatherDisplay:10.37,2013-08-01 02:43:00,
2013-07-31 22:48:00,66.8,62.5,29.95,North,360,0.0,0.0,86,0.00,BKN,,0.00,WeatherDisplay:10.37,2013-08-01 02:48:00,
2013-07-31 22:53:00,66.7,62.7,29.95,North,360,0.0,0.0,87,0.00,BKN,,0.00,WeatherDisplay:10.37,2013-08-01 02:53:00,
2013-07-31 22:58:00,66.6,62.6,29.95,North,360,0.0,0.0,87,0.00,BKN,,0.00,WeatherDisplay:10.37,2013-08-01 02:58:00,
2013-07-31 23:03:00,66.6,62.6,29.94,North,360,0.0,0.0,87,0.00,FEW,,0.00,WeatherDisplay:10.37,2013-08-01 03:03:00,
2013-07-31 23:08:00,66.5,62.8,29.94,North,360,0.0,0.0,88,0.00,FEW,,0.00,WeatherDisplay:10.37,2013-08-01 03:08:00,
2013-07-31 23:13:00,66.5,62.8,29.93,North,360,0.0,0.0,88,0.00,FEW,,0.00,WeatherDisplay:10.37,2013-08-01 03:13:00,
2013-07-31 23:18:00,66.5,62.8,29.93,North,360,0.0,0.0,88,0.00,FEW,,0.00,WeatherDisplay:10.37,2013-08-01 03:18:00,
2013-07-31 23:23:00,66.5,62.8,29.93,North,360,0.0,0.0,88,0.00,FEW,,0.00,WeatherDisplay:10.37,2013-08-01 03:23:00,
2013-07-31 23:28:00,66.4,62.7,29.93,North,360,0.0,0.0,88,0.00,FEW,,0.00,WeatherDisplay:10.37,2013-08-01 03:28:00,
2013-07-31 23:33:00,66.5,62.8,29.93,North,360,0.0,0.0,88,0.00,FEW,,0.00,WeatherDisplay:10.37,2013-08-01 03:33:00,
2013-07-31 23:38:00,66.4,63.1,29.93,North,360,0.0,0.0,89,0.00,FEW,,0.00,WeatherDisplay:10.37,2013-08-01 03:38:00,
2013-07-31 23:43:00,66.4,63.1,29.93,North,360,0.0,0.0,89,0.00,FEW,,0.00,WeatherDisplay:10.37,2013-08-01 03:43:00,
2013-07-31 23:48:00,66.4,63.1,29.93,North,360,0.0,0.0,89,0.00,FEW,,0.00,WeatherDisplay:10.37,2013-08-01 03:48:00,
2013-07-31 23:53:00,66.4,63.1,29.93,North,360,0.0,0.0,89,0.00,FEW,,0.00,WeatherDisplay:10.37,2013-08-01 03:53:00,
2013-07-31 23:58:00,66.4,63.1,29.93,North,360,0.0,0.0,89,0.00,FEW,,0.00,WeatherDisplay:10.37,2013-08-01 03:58:00,